Regional Weather Roundup
Issued by NWS

Home | Current Version | Previous Version | Text Only | Print | Product List | Glossary On
Versions: 1 2 3 4 5 6 7 8 9 10 11 12 13 14 15 16 17 18 19 20 21 22 23 24 25 26 27 28 29 30 31 32 33 34 35 36 37 38 39 40 41 42 43 44 45 46 47 48 49 50
000
ASUS45 KBOU 262007
RWRCO

WEATHER ROUNDUP FOR COLORADO
NATIONAL WEATHER SERVICE DENVER/BOULDER CO
100 PM MST FRI DEC 26 2014

NOTE: "FAIR" INDICATES FEW OR NO CLOUDS BELOW 12000 FEET WITH NO
SIGNIFICANT WEATHER AND/OR OBSTRUCTIONS TO VISIBILITY.

COZ001>005-013-030-031-262100-
...NORTHWEST COLORADO...

CITY           SKY/WX    TMP DP  RH WIND       PRES   REMARKS
CRAIG          LGT SNOW  18  12  77 W13       29.83S WCI   5
HAYDEN         MOSUNNY   16   9  73 NW9       29.80S WCI   4
MEEKER         LGT SNOW  17  12  80 SW12      29.82S WCI   4
MOUNT WERNER   NOT AVBL
STEAMBOAT SPGS CLOUDY    17  11  75 SW7       29.77S WCI   8
WALDEN         CLOUDY    12   7  79 NW6       29.72F WCI   3
$$

COZ006>008-011-262100-
...WEST CENTRAL VALLEYS...

CITY           SKY/WX    TMP DP  RH WIND       PRES   REMARKS
GRAND JUNCTION LGT SNOW  25  23  92 W9        29.84S FOG     WCI  15
MONTROSE       MOSUNNY   28  20  71 NE3       29.80F
EAGLE          PTSUNNY   34  21  60 W6        29.74F WCI  29
RIFLE          CLOUDY    26  14  60 W10       29.81S WCI  16
DELTA          PTSUNNY   37  20  50 NW6       29.79F
NUCLA          PTSUNNY   30  21  69 NW7       29.82F WCI  23
$$

COZ017>023-064>068-262100-
...SOUTHWEST COLORADO...

CITY           SKY/WX    TMP DP  RH WIND       PRES   REMARKS
DURANGO        PTSUNNY   26  18  71 W15       29.73S WCI  14
CORTEZ         CLOUDY    30  18  60 W10       29.79S WCI  21
PAGOSA SPRINGS LGT SNOW  23  19  82 S3        29.70S
TELLURIDE      PTSUNNY   19  10  66 W8        29.69S WCI   9
WOLF CREEK PAS CLOUDY     5   3  92 MISG      29.59S
$$

COZ009-010-012-014-032>034-037-058>063-262100-
...CENTRAL COLORADO...

CITY           SKY/WX    TMP DP  RH WIND       PRES   REMARKS
ASPEN          PTSUNNY   23  15  71 N7        29.68S WCI  15
BUENA VISTA    CLOUDY    17  10  75 SE8       29.74F WCI   6
COPPER MTN     LGT SNOW  10   1  67 MISG      29.57F
BERTHOUD PASS  LGT SNOW   0  -8  71 MISG      29.57F
COTTONWOOD PAS LGT SNOW  14   9  79 SE6       29.67S WCI   5
GUNNISON       PTSUNNY   16  10  79 E3        29.73F
KREMMLING      CLOUDY    19  12  73 SE5       29.74F HAZE    WCI  13
LEADVILLE      CLOUDY     7   2  80 S10       29.63F WCI  -8
MONARCH PASS   LGT SNOW   0  -6  78 MISG      29.66S
SALIDA         CLOUDY    17  12  82 SE6       29.85S WCI   8
SUNLIGHT       SNOW     N/A N/A N/A CALM      29.65F VSB 1/4
WILKERSON PASS LGT SNOW N/A N/A N/A CALM      29.64F
$$

COZ069>075-262100-
...SAN LUIS VALLEY/SANGRE DE CRISTO MOUNTAINS...

CITY           SKY/WX    TMP DP  RH WIND       PRES   REMARKS
ALAMOSA        CLOUDY    25  17  72 SW10      29.67S WCI  15
LA VETA PASS   NOT AVBL
SAGUACHE       LGT SNOW  21  18  86 SE3       29.68F
$$

COZ035-036-038>040-262100-
...NORTHERN COLORADO FRONT RANGE...

CITY           SKY/WX    TMP DP  RH WIND       PRES   REMARKS
DENVER INTL AP LGT SNOW  18  13  80 N7        29.91F WCI   9
DMNS CITY PARK   N/A     19  15  82 NE9       29.91F WCI   9
AURORA         LGT SNOW  18  14  83 N8        29.90F FOG     WCI   8
FRONT RANGE AP LGT SNOW  19  16  86 CALM      29.91F
ERIE MUNI ARPT   N/A     20  16  84 NE6       29.93F WCI  12
BOULDER MUN AP LGT SNOW  21  18  86 N3        29.92F
CENTENNIAL     LGT SNOW  17  13  84 N7        29.88F VSB 3/4 WCI   8
BROOMFIELD     PTSUNNY   19  12  73 N5        29.91F WCI  13
FORT COLLINS   PTSUNNY   19  16  86 E5        29.95F WCI  13
LONGMONT       LGT SNOW  26  17  66 NE3       29.95F
$$

COZ041-046-047-076>085-087-088-262100-
...PIKES PEAK/PALMER DIVIDE AND SOUTHERN FOOTHILLS...

CITY           SKY/WX    TMP DP  RH WIND       PRES   REMARKS
COLO. SPRINGS  PTSUNNY   22   9  57 N10       29.84F WCI  11
A. F. ACADEMY  PTSUNNY   19   8  63 N14       29.81F WCI   5
ELLICOTT       NOT AVBL
FALCON         CLOUDY    18   8  64 N12       29.82S WCI   5
FORT CARSON    PTSUNNY   23   9  55 E3        29.85F
LIMON          LGT SNOW  16  12  84 N15       29.89S FOG     WCI   1
MONUMENT HILL  LGT SNOW  14  10  85 NW9       29.80F WCI   2
TRINIDAD       LGT SNOW  21  15  78 N9        29.85F WCI  11
$$

COZ042>045-048>051-090-091-262100-
...NORTHEAST COLORADO...

CITY           SKY/WX    TMP DP  RH WIND       PRES   REMARKS
GREELEY ARPT   CLOUDY    18  10  73 NE7       29.95F WCI   8
AKRON          LGT SNOW  17  13  84 N13       29.93F FOG     WCI   4
BURLINGTON     LGT SNOW  22  17  81 N14       29.93R WCI   9
WRAY           LGT SNOW  24  21  87 N14       29.97F VSB 1   WCI  12
STERLING       LGT SNOW  23  19  86 N8        29.98F WCI  14
HOLYOKE        LGT SNOW  25  19  80 N17       29.99F VSB 3/4 WCI  11
FORT MORGAN    LGT SNOW  20  14  78 N7        29.96F VSB 3/4 WCI  11
$$

COZ086-089-092>099-262100-
...SOUTHEAST COLORADO...

CITY           SKY/WX    TMP DP  RH WIND       PRES   REMARKS
PUEBLO         CLOUDY    25  17  72 E8        29.91S WCI  16
LA JUNTA       LGT SNOW  25  19  78 N13       29.93F WCI  14
LAMAR          LGT SNOW  26  20  77 N12       29.93F WCI  16
SPRINGFIELD      N/A     25  19  78 N15       29.88F WCI  13
$$



USA.gov is the U.S. government's official web portal to all federal, state and local government web resources and services.